Weather in Shturbino

Russia / Republic of Adygea     45°03′24″N   39°54′24″E
temp.,
°C
wind,
m/s
gust,
m/s
humid.,
%
clouds,
%
prec.,
mm/h
press.,
hPa
HPBL,
m
20 april, tue
tue2000:00+13ene2498100 0.6 1011108
03:00+13nne3798100 4.3 1009206
06:00+12ene61196100 0.3 1005358
09:00+16w238799 0.3 1005420
12:00+19w7137766 0.1 10051316
15:00+19wsw9147189 0.1 10071237
18:00+14wsw10176887 0.0 1009770
21:00+12wsw8167276 0.0 1012797
21 april, wed
wed2100:00+10w715827 0.0 1014612
03:00+8w399413 0.0 1016258
06:00+8w2792100 0.0 1017270
09:00+12ssw2382100 0.1 1018733
12:00+13s3579100 0.6 1019636
15:00+16wsw486239 0.9 10181629
18:00+14wsw48725 0.2 1019345
21:00+9wsw348585 0.2 102150
22 april, thu
thu2200:00+8sw1186100 0.0 102210
03:00+7w1186100 0.0 102210
06:00+7sse11878 0.0 102310
09:00+12nne11738 0.0 1023496
12:00+16ne226164 0.0 10231210
15:00+16ene1157100 0.1 10221292
18:00+15ese227267 0.1 102231
21:00+11se22858 0.1 102317
23 april, fri
fri2300:00+9sse11870 0.0 102310
03:00+8sw22914 0.0 102316
06:00+7sw23955 0.0 102456
09:00+13wsw22793 0.0 1024420
12:00+17wnw11630 0.1 10231131
15:00+18nw22550 0.4 10221542
18:00+17ne11650 0.0 102212
21:00+12sse227318 0.0 102212
24 april, sat
sat2400:00+10ese33826 0.0 102123
03:00+9ese348651 0.0 101957
06:00+9ese3486100 0.0 101975
09:00+14se2374100 0.0 1018244
12:00+16nne4569100 0.0 1018308
15:00+18e115072 0.0 10171048
18:00+16ese3469100 0.0 101771
21:00+14se2265100 0.0 101720